Weather History for CYYG - January, 2014

Change the Weather History Date:

Saturday, January 18, 2014

  Actual Average Record
Temperature  
Mean Temperature 33 °F -  
Max Temperature 36 °F 26 °F 44 °F (2006)
Min Temperature 30 °F 10 °F -9 °F (2009)
Degree Days  
Heating Degree Days 32    
Moisture  
Dew Point 33 °F    
Average Humidity 98    
Maximum Humidity 100    
Minimum Humidity 84    
Precipitation  
Precipitation 0.04 in 0.13 in - ()
Sea Level Pressure  
Sea Level Pressure 29.82 in    
Wind  
Wind Speed 7 mph ()    
Max Wind Speed 14 mph    
Max Gust Speed 18 mph    
Visibility 7.9 miles    
Events Fog , Snow    
Averages and records for this station are not official NWS values.
T = Trace of Precipitation, MM = Missing Value Source: Averaged Metar Reports

Daily Weather History Graph

Daily Weather History Graph

Search for Another Location

Airport or City:

Trip Planner

Search our weather history database for the weather conditions in past years. The results will help you decide how hot, cold, wet, or windy it might be!

Date:

Astronomy

Jan. 18, 2014 Rise Set
Actual Time 7:49 AM AST 4:56 PM AST
Civil Twilight 7:16 AM AST 5:30 PM AST
Nautical Twilight 6:38 AM AST 6:07 PM AST
Astronomical Twilight 6:03 AM AST 6:43 PM AST
Moon 7:46 PM AST (1/18) 8:36 AM AST (1/18)
Length of Visible Light 10h 14m
Length of Day
9h 07m
Waning Gibbous, 95% of the Moon is Illuminated
Jan 18
Waning Gibbous
Jan 24
Last Quarter
Jan 30
New
Feb 6
First Quarter
Feb 14
Full

Hourly Weather History & Observations

Time (AST) Temp. Windchill Dew Point Humidity Pressure Visibility Wind Dir Wind Speed Gust Speed Precip Events Conditions
12:00 AM 37.4 °F 29.8 °F 37.4 °F 100% 29.92 in 1.0 mi South 11.5 mph 18.4 mph N/A   Overcast
12:13 AM 37.4 °F 30.8 °F 37.4 °F 100% 29.91 in 0.5 mi South 9.2 mph - N/A Fog Fog
1:00 AM 37.4 °F 32.1 °F 37.4 °F 100% 29.91 in 0.8 mi SSW 6.9 mph - N/A   Mist
2:00 AM 36 °F - 36 °F 100% 29.91 in 1 mi South 6.9 mph - -   Partly Cloudy
2:00 AM 35.6 °F 29.9 °F 35.6 °F 100% 29.91 in 0.8 mi South 6.9 mph - N/A   Overcast
3:00 AM 35.6 °F 28.6 °F 35.6 °F 100% 29.91 in 2.0 mi SSW 9.2 mph - N/A   Overcast
3:39 AM 35.6 °F 28.6 °F 35.6 °F 100% 29.91 in 10.0 mi SSW 9.2 mph - N/A   Mostly Cloudy
4:00 AM 35.6 °F 29.2 °F 35.6 °F 100% 29.91 in 15.0 mi SSW 8.1 mph - N/A   Mostly Cloudy
5:00 AM 35.6 °F 29.2 °F 33.8 °F 93% 29.91 in 15.0 mi SW 8.1 mph - N/A   Mostly Cloudy
6:00 AM 33.8 °F 26.4 °F 33.8 °F 100% 29.90 in 15.0 mi SSW 9.2 mph - N/A   Mostly Cloudy
7:00 AM 33.8 °F 28.6 °F 33.8 °F 100% 29.90 in 15.0 mi SSW 5.8 mph - N/A   Mostly Cloudy
7:46 AM 33.8 °F 27.0 °F 33.8 °F 100% 29.91 in 15.0 mi WSW 8.1 mph - N/A   Mostly Cloudy
8:00 AM 33 °F - 32 °F 96% 29.91 in 15 mi SW 5.8 mph - -   Mostly Cloudy
8:00 AM 33.8 °F 28.6 °F 32.0 °F 93% 29.91 in 15.0 mi SW 5.8 mph - N/A   Mostly Cloudy
9:00 AM 33.8 °F 27.7 °F 32.0 °F 93% 29.92 in 15.0 mi SW 6.9 mph - N/A   Mostly Cloudy
9:10 AM 33.8 °F 28.6 °F 32.0 °F 93% 29.93 in 15.0 mi WSW 5.8 mph - N/A   Mostly Cloudy
9:46 AM 33.8 °F 28.6 °F 33.8 °F 100% 29.91 in 10.0 mi WSW 5.8 mph - N/A   Overcast
10:00 AM 33.8 °F 27.7 °F 33.8 °F 100% 29.91 in 8.0 mi WSW 6.9 mph - N/A   Overcast
10:41 AM 33.8 °F 30.8 °F 33.8 °F 100% 29.91 in 8.0 mi SW 3.5 mph - N/A   Overcast
11:00 AM 33.8 °F 28.6 °F 33.8 °F 100% 29.91 in 8.0 mi SW 5.8 mph - N/A   Mostly Cloudy
11:33 AM 35.6 °F 30.7 °F 33.8 °F 93% 29.91 in 10.0 mi SW 5.8 mph - N/A   Overcast
12:00 PM 35.6 °F 32.8 °F 33.8 °F 93% 29.87 in 12.0 mi WSW 3.5 mph - N/A   Overcast
1:00 PM 35.6 °F - 32.0 °F 87% 29.83 in 15.0 mi West 2.3 mph - N/A   Overcast
2:00 PM 36 °F - 33 °F 84% 29.82 in 15 mi NNE 2.3 mph - -   Overcast
2:00 PM 35.6 °F 32.8 °F 33.8 °F 93% 29.82 in 15.0 mi NE 3.5 mph - N/A   Overcast
3:00 PM 35.6 °F 31.7 °F 33.8 °F 93% 29.79 in 15.0 mi NNE 4.6 mph - N/A   Overcast
4:00 PM 33.8 °F 29.6 °F 33.8 °F 100% 29.79 in 15.0 mi East 4.6 mph - N/A   Overcast
5:00 PM 33.8 °F 30.8 °F 33.8 °F 100% 29.77 in 10.0 mi North 3.5 mph - N/A   Overcast
5:53 PM 32.0 °F 27.5 °F 32.0 °F 100% 29.76 in 6.0 mi NNE 4.6 mph - N/A   Overcast
6:00 PM 32.0 °F 27.5 °F 32.0 °F 100% 29.76 in 5.0 mi NNE 4.6 mph - N/A   Overcast
6:38 PM 32.0 °F 27.5 °F 32.0 °F 100% 29.76 in 5.0 mi NE 4.6 mph - N/A Snow Light Snow
7:00 PM 32.0 °F 28.7 °F 32.0 °F 100% 29.74 in 4.0 mi ENE 3.5 mph - N/A Snow Light Snow
7:34 PM 32.0 °F 26.4 °F 32.0 °F 100% 29.73 in 1.5 mi ENE 5.8 mph - N/A Snow Light Snow
8:00 PM 32 °F - 32 °F 100% 29.71 in 1 mi ENE 6.9 mph - - Snow Light Snow
8:00 PM 32.0 °F 25.6 °F 32.0 °F 100% 29.71 in 1.2 mi ENE 6.9 mph - N/A Snow Light Snow
8:50 PM 32.0 °F 24.8 °F 32.0 °F 100% 29.67 in 1.5 mi NNE 8.1 mph - N/A Snow Light Snow
9:00 PM 32.0 °F 25.6 °F 32.0 °F 100% 29.67 in 1.5 mi NNE 6.9 mph - N/A Snow Light Snow
10:00 PM 32.0 °F 23.6 °F 32.0 °F 100% 29.63 in 2.5 mi North 10.4 mph - N/A Snow Light Snow
10:20 PM 32.0 °F 24.2 °F 32.0 °F 100% 29.61 in 5.0 mi NNE 9.2 mph - N/A Snow Light Snow
11:00 PM 32.0 °F 24.2 °F 30.2 °F 93% 29.57 in 5.0 mi NNE 9.2 mph - N/A Snow Light Snow
11:34 PM 30.2 °F 19.8 °F 30.2 °F 100% 29.55 in 1.5 mi NNE 13.8 mph - N/A Snow Light Snow
11:46 PM 30.2 °F 20.2 °F 30.2 °F 100% 29.56 in 0.4 mi NNE 12.7 mph - N/A Fog , Snow Light Snow